Showing default

LUNA-2, 68470

Orbit data source: Space-Track

LUNA-2, 68470 is a payload satellite owned by Aselsan (TR) in SSO that was launched on Mon, 30 Mar 2026 UTC via an FALCON 9 launch vehicle from the Air Force Western Test Range (AFWTR). Payload-class satellites include a variety of spacecraft equipped with specific instruments for various scientific and technological missions. These include communications satellites like Starlink; space stations such as the ISS; scientific satellites like the Hubble; Earth observation satellites from companies like Planet Labs, Umbra, and HawkEye 360; GPS; miniature CubeSats for education and research; and military/defense satellites.

Loading next visibility...
Identifier
68470, 2026-067BG
Orbit
SSO
Country
Flag of TRTR / TURK
Related business
Manufacturer
Aselsan
Mission
Operational Commercial Communications
Bus & Motor
CUBESAT 6U?, Unknown motor
Mass
~12 kg wet, ~12 kg dry
Launch date (UTC)
2026-03-30 (6 months ago)
Launch vehicle
FALCON 9
Launch site
Air Force Western Test Range (AFWTR)
Object type
Payload
Rocket body
Debris
Shape & HBR
Box, 0.2 m
Radar Cross Section
0.080 m², Medium (>0.1 m² and < 1m²)

Expand to show TLE details & history
Last TLE update: 20 hours ago

TLE from 20 hours ago
0 LUNA-2
1 68470U 26067BG  26263.45287246  .00004297  00000-0  21186-3 0  9996
2 68470  97.4580 220.2673 0008835  96.1157 264.1084 15.18432652 26386
Epoch: 2026-09-20T10:52Z
TLE epoch observation values (Epoch: 2026-09-20T10:52:08.180Z)
Latitude
-0.00003°
Longitude
57.88638°
Altitude
514.294 km
Speed
7.606 km/s
True Right ascension
14h 41m 04s
True Declination
0° 00' 00"
Sunlit
Object was in daylight at epoch
Visualization orbit readout
Latitude
Unknown
Longitude
Unknown
Altitude
Unknown
Speed
Unknown
Apparent Right ascension
Unknown
Apparent Declination
Unknown
Sunlit
N/A
Visualization observer readout
Local Sidereal Time
00:09:44
Azimuth
Unknown
Elevation
Unknown
Doppler factor
Unknown
Orbital elements
Apogee altitude
513.631 km
Perigee altitude
501.464 km
Semi-major axis
6,885.684 km
Eccentricity
0.00088
Inclination
97.458°
RAAN
220.2673°
Arg. of periapsis
96.1157°
True anomaly
264.0077°
Mean anomaly
264.1084°
Eccentric anomaly
264.05805°
Mean motion
3.79859 °/min
Orbital period
94.77 mins
BSTAR
0.00021186
Loading maneuver chart data...
Computing Atmospheric mass density...
Loading historical data...
Loading historical data...
Loading historical data...
Loading historical data...
Loading historical data...
Loading historical data...
Loading historical data...

Documentation

Showing up to 5 results
|